Waukegan, IL

8:17 PM CST on December 07, 2016 (GMT -0600)
Waukegan Regional

Weather History for KUGN - October, 2013

Change the Weather History Date:

Thursday, October 3, 2013

  Actual Average Record
Temperature  
Mean Temperature 66 °F -  
Max Temperature 74 °F 64 °F 84 °F (2005)
Min Temperature 57 °F 46 °F 36 °F (2004)
Degree Days  
Heating Degree Days 0 11  
Month to date heating degree days 5 31  
Since 1 July heating degree days 183 197  
Cooling Degree Days 1 1  
Month to date cooling degree days 3 3  
Year to date cooling degree days 586 560  
Growing Degree Days 14 (Base 50)    
Moisture  
Dew Point 64 °F    
Average Humidity 90    
Maximum Humidity 100    
Minimum Humidity 79    
Precipitation  
Precipitation T in 0.13 in 1.40 in (2014)
Month to date precipitation T 0.42  
Year to date precipitation 24.41 28.33  
Sea Level Pressure  
Sea Level Pressure 29.91 in    
Wind  
Wind Speed 7 mph (South)    
Max Wind Speed 18 mph    
Max Gust Speed 24 mph    
Visibility 7 miles    
Events Fog , Rain    
T = Trace of Precipitation, MM = Missing Value Source: NWS Daily Summary

Daily Weather History Graph

Daily Weather History Graph

Search for Another Location

Airport or City:

Trip Planner

Search our weather history database for the weather conditions in past years. The results will help you decide how hot, cold, wet, or windy it might be!

Date:

Astronomy

Oct. 03, 2013 Rise Set
Actual Time 6:51 AM CDT 6:29 PM CDT
Civil Twilight 6:23 AM CDT 6:57 PM CDT
Nautical Twilight 5:50 AM CDT 7:29 PM CDT
Astronomical Twilight 5:17 AM CDT 8:02 PM CDT
Moon 5:23 AM CDT (10/3) 5:37 PM CDT (10/3)
Length of Visible Light 12h 34m
Length of Day
11h 37m
Waning Crescent, 2% of the Moon is Illuminated
Oct 3
Waning Crescent
Oct 4
New
Oct 11
First Quarter
Oct 18
Full
Oct 26
Last Quarter

Hourly Weather History & Observations

Time (CDT) Temp. Dew Point Humidity Pressure Visibility Wind Dir Wind Speed Gust Speed Precip Events Conditions
12:52 AM 55.9 °F 55.0 °F 97% 29.98 in 9.0 mi Calm Calm - N/A   Scattered Clouds
1:01 AM 57.2 °F 55.4 °F 94% 29.99 in 10.0 mi Calm Calm - N/A   Mostly Cloudy
1:30 AM 60.8 °F 59.0 °F 94% 29.98 in 9.0 mi Calm Calm - N/A   Overcast
1:52 AM 61.0 °F 60.1 °F 97% 29.96 in 10.0 mi Calm Calm - N/A   Overcast
2:42 AM 60.8 °F 59.0 °F 94% 29.96 in 9.0 mi Calm Calm - N/A   Scattered Clouds
2:52 AM 59.0 °F 59.0 °F 100% 29.95 in 10.0 mi Calm Calm - N/A   Mostly Cloudy
3:37 AM 62.6 °F 60.8 °F 94% 29.96 in 10.0 mi SE 3.5 mph - N/A   Overcast
3:52 AM 63.0 °F 61.0 °F 93% 29.94 in 10.0 mi SE 3.5 mph - N/A   Overcast
4:52 AM 63.0 °F 61.0 °F 93% 29.93 in 10.0 mi Calm Calm - N/A   Overcast
5:08 AM 62.6 °F 60.8 °F 94% 29.94 in 10.0 mi Calm Calm - N/A   Overcast
5:52 AM 63.0 °F 61.0 °F 93% 29.92 in 8.0 mi Calm Calm - N/A   Overcast
6:38 AM 62.6 °F 62.6 °F 100% 29.94 in 2.0 mi SSE 4.6 mph - N/A   Overcast
6:45 AM 62.6 °F 62.6 °F 100% 29.94 in 1.0 mi South 4.6 mph - N/A Fog Fog
6:52 AM 63.0 °F 63.0 °F 100% 29.94 in 0.5 mi South 5.8 mph - N/A Fog Fog
7:05 AM 62.6 °F 62.6 °F 100% 29.95 in 0.2 mi South 6.9 mph - N/A Fog Fog
7:52 AM 63.0 °F 63.0 °F 100% 29.94 in 0.2 mi South 6.9 mph - N/A Fog Fog
8:24 AM 64.4 °F 64.4 °F 100% 29.94 in 0.5 mi South 6.9 mph - N/A Fog Fog
8:43 AM 64.4 °F 64.4 °F 100% 29.94 in 1.0 mi South 9.2 mph - N/A   Overcast
8:52 AM 64.9 °F 64.9 °F 100% 29.93 in 1.0 mi South 9.2 mph - N/A   Overcast
9:18 AM 66.2 °F 66.2 °F 100% 29.93 in 2.0 mi South 10.4 mph - N/A   Overcast
9:52 AM 66.0 °F 66.0 °F 100% 29.92 in 2.5 mi South 10.4 mph - N/A   Overcast
10:15 AM 66.2 °F 66.2 °F 100% 29.94 in 3.0 mi SSW 5.8 mph - N/A   Overcast
10:52 AM 69.1 °F 66.0 °F 90% 29.94 in 3.0 mi SSW 9.2 mph - N/A   Overcast
11:52 AM 69.1 °F 66.9 °F 93% 29.92 in 3.0 mi South 4.6 mph - N/A   Mostly Cloudy
12:01 PM 69.8 °F 66.2 °F 88% 29.93 in 6.0 mi South 5.8 mph - 0.00 in Rain Light Rain
12:52 PM 71.1 °F 66.9 °F 87% 29.92 in 10.0 mi SW 9.2 mph - 0.00 in   Mostly Cloudy
1:52 PM 71.1 °F 64.9 °F 81% 29.88 in 10.0 mi SSW 12.7 mph - 0.01 in   Mostly Cloudy
1:59 PM 71.6 °F 66.2 °F 83% 29.90 in 10.0 mi SSW 8.1 mph - N/A   Mostly Cloudy
2:52 PM 73.0 °F 66.0 °F 79% 29.86 in 10.0 mi South 11.5 mph - N/A   Mostly Cloudy
3:12 PM 73.4 °F 66.2 °F 78% 29.87 in 10.0 mi South 11.5 mph - N/A   Scattered Clouds
3:21 PM 71.6 °F 66.2 °F 83% 29.87 in 10.0 mi ESE 9.2 mph - N/A   Mostly Cloudy
3:52 PM 70.0 °F 66.0 °F 87% 29.85 in 8.0 mi SE 8.1 mph - N/A   Mostly Cloudy
4:27 PM 69.8 °F 66.2 °F 88% 29.86 in 6.0 mi ESE 5.8 mph - N/A   Scattered Clouds
4:39 PM 71.6 °F 66.2 °F 83% 29.87 in 7.0 mi SE 4.6 mph - N/A   Mostly Cloudy
4:52 PM 71.1 °F 66.9 °F 87% 29.84 in 8.0 mi ESE 4.6 mph - N/A   Mostly Cloudy
5:02 PM 71.6 °F 66.2 °F 83% 29.85 in 8.0 mi Calm Calm - N/A   Scattered Clouds
5:52 PM 71.1 °F 66.9 °F 87% 29.84 in 8.0 mi South 5.8 mph - N/A   Clear
6:52 PM 70.0 °F 66.9 °F 90% 29.84 in 9.0 mi SE 5.8 mph - N/A   Mostly Cloudy
7:52 PM 68.0 °F 66.0 °F 93% 29.85 in 6.0 mi SSE 4.6 mph - N/A   Clear
8:52 PM 70.0 °F 66.0 °F 87% 29.84 in 9.0 mi South 8.1 mph - N/A   Clear
9:52 PM 70.0 °F 64.0 °F 81% 29.84 in 10.0 mi South 16.1 mph 23.0 mph N/A   Scattered Clouds
11:52 PM 68.0 °F 64.0 °F 87% 29.88 in 10.0 mi Variable 6.9 mph - N/A   Scattered Clouds